Regional Weather Roundup
Issued by NWS

Home | Current Version | Previous Version | Graphics & Text | Print | Product List | Glossary On
Versions: 1 2 3 4 5 6 7 8 9 10 11 12 13 14 15 16 17 18 19 20 21 22 23 24 25 26 27 28 29 30 31 32 33 34 35 36 37 38 39 40 41 42 43 44 45 46 47 48 49 50
000
ASUS43 KDTX 202301
RWRMI
MICHIGAN HOURLY REGIONAL WEATHER ROUNDUP
NATIONAL WEATHER SERVICE DETROIT/PONTIAC MI
700 PM EDT MON OCT 20 2014

NOTE: "FAIR" INDICATES FEW OR NO CLOUDS BELOW 12,000 FEET WITH NO
SIGNIFICANT WEATHER AND/OR OBSTRUCTION TO VISIBILITY.

MIZ047>049-052>055-059>063-066>070-074>076-081>083-210000-
SOUTHEAST LOWER MICHIGAN

CITY           SKY/WX    TMP DP  RH WIND       PRES   REMARKS
ADRIAN         MOCLDY    52  49  89 W5        29.84R
ALMA           CLOUDY    53  46  75 N10G18    29.85R
ANN ARBOR      CLOUDY    52  46  80 SW5       29.82R
BAD AXE        CLOUDY    51  50  97 CALM      29.82R
CARO           CLOUDY    52  49  90 CALM      29.81R
DETROIT CITY   CLOUDY    58  48  69 W5        29.81R
DETROIT        MOCLDY    54  47  77 SW7       29.82R
FLINT          LGT RAIN  55  49  80 W7        29.82R
GROSSE ILE     CLOUDY    55  48  76 SW7       29.81R
HILLSDALE      MOCLDY    53  52  96 W3        29.84R
HOWELL         LGT RAIN  53  49  85 SW6       29.81R

CITY           SKY/WX    TMP DP  RH WIND       PRES   REMARKS
JACKSON        LGT RAIN  53  50  89 S3        29.83R
LAMBERTVILLE   CLOUDY    55  48  76 W3        29.84R
LANSING        CLOUDY    55  48  77 NW9       29.83R
LAPEER         CLOUDY    53  47  80 CALM      29.81R
MASON          LGT RAIN  52  51  94 CALM      29.82R
MONROE         CLOUDY    54  50  87 SW6       29.81S
MT. CLEMENS    CLOUDY    55  48  77 NW3       29.78S
PONTIAC        CLOUDY    53  48  83 W3        29.80R
PORT HOPE        N/A     52  48  86 CALM      29.80R
PORT HURON     CLOUDY    52  52 100 CALM      29.80S FOG
TRI CITIES     CLOUDY    55  45  68 N9        29.84R
TROY           CLOUDY    57  47  70 W3        29.82S
SAGINAW HB     CLOUDY    55  50  82 NW3       29.82R
$$
MIZ043>046-050>051-056>058-064>065-071>073-077>080-210000-
SOUTHWEST LOWER MICHIGAN

CITY           SKY/WX    TMP DP  RH WIND       PRES   REMARKS
BATTLE CREEK   CLOUDY    56  47  71 W12       29.86R
BENTON HARBOR  CLOUDY    52  46  80 MISG      29.91R
BIG RAPIDS     CLOUDY    48  47  97 N8        29.88R
COLDWATER      CLOUDY    56  50  80 W9        29.84R
FREMONT        CLOUDY    49  43  79 NW12      29.89R
HOLLAND        CLOUDY    54  45  71 NW8       29.90R
GRAND RAPIDS   CLOUDY    56  45  66 NW14      29.87R
IONIA          CLOUDY    56  46  68 NW8       29.84R
KALAMAZOO      CLOUDY    55  47  74 NW9G18    29.87R
LUDINGTON      CLOUDY    49  45  85 N7        29.92R
MARSHALL       CLOUDY    55  49  79 W7        29.84R
MOUNT PLEASANT CLOUDY    50  42  74 NW8       29.85R
MUSKEGON       CLOUDY    52  43  71 N10       29.92R
SOUTH HAVEN    CLOUDY    53  48  81 N12G22    29.90R
$$
MIZ016>042-210000-
NORTHERN LOWER MICHIGAN

CITY           SKY/WX    TMP DP  RH WIND       PRES   REMARKS
ALPENA         CLOUDY    48  45  89 NW5       29.83R
BEAVER ISLAND  CLOUDY    47  42  83 NW10G16   29.89R
BELLAIRE       CLOUDY    47  44  87 NW3       29.88R
CADILLAC       DRIZZLE   45  44  97 NW6       29.87R
CHARLEVOIX     CLOUDY    49  44  83 NW12G20   29.91R
FRANKFORT      CLOUDY    50  42  75 N6G16     29.91R
GAYLORD        CLOUDY    45  41  86 NW5       29.85R
GRAYLING       CLOUDY    49  45  85 NW10      29.87R
HARBOR SPRINGS CLOUDY    49  42  78 W5        29.87R
HOUGHTON LAKE  CLOUDY    47  42  83 NW8       29.86R
MANISTEE       CLOUDY    48  41  76 N9        29.92R
OSCODA         CLOUDY    49  46  88 NW6       29.82R
PELLSTON       CLOUDY    48  42  80 NW10      29.87R
TRAVERSE CITY  DRIZZLE   48  43  82 NW9       29.88R
$$
MIZ007>008-015-210000-
EASTERN UPPER MICHIGAN

CITY           SKY/WX    TMP DP  RH WIND       PRES   REMARKS
KINROSS        CLOUDY    46  46 100 NW13      29.84R
MACKINAC ISLAN CLOUDY    47  43  86 NW12      29.85R
NEWBERRY       CLOUDY    42  42  98 NW9G16    29.88R FOG
S. S. MARIE    CLOUDY    49  44  83 N3        29.84R
MUNISING         N/A     47  41  80 N18       29.94R
$$
MIZ004>006-011>014-085-210000-
CENTRAL UPPER MICHIGAN

CITY           SKY/WX    TMP DP  RH WIND       PRES   REMARKS
MANISTIQUE     CLOUDY    44  41  90 NW9       29.91R
ESCANABA       CLOUDY    46  37  71 N13G18    29.94R
MENOMINEE      CLOUDY    48  39  71 N6        29.94R
SAWYER-GWINN   CLOUDY    41  39  93 N12       29.95R
$$
MIZ001>003-009>011-084-210000-
WESTERN UPPER MICHIGAN

CITY           SKY/WX    TMP DP  RH WIND       PRES   REMARKS
IRON MOUNTAIN  CLOUDY    46  38  73 N9        29.96R
HOUGHTON       CLOUDY    42  36  79 N12       30.00R
COPPER HARBOR    N/A     45  39  79 NE18G25   29.99R
IRONWOOD       CLOUDY    46  43  87 N8        30.00R
$$

ABBREVIATIONS USED IN REMARKS
   TC - TEMPERATURE IN CELSIUS
  WCI - WIND CHILL INDEX
   HX - HEAT INDEX
  VSB - VISIBILITY




USA.gov is the U.S. government's official web portal to all federal, state and local government web resources and services.